RH
16 16 16 17 16 16 17 18 18 19 22 27 31 34 39 39 37 40 40 40 37 37 38 39 36 35 35 30 28 20 22 22 24 22 18 20 22 24 24 19 15 10 10
14 16 16 17 17 18 19 20 20 20 23 24 29 33 36 40 41 42 42 42 44 44 46 44 38 32 29 25 24 24 23 23 28 26 24 20 21 21 27 28 27 16 11
15 16 16 17 18 20 21 21 22 26 32 39 40 41 42 45 46 48 50 47 39 40 40 35 31 28 28 27 29 29 32 32 32 38 28 27 20 21 22 24 27 24 13
26 26 26 26 29 31 32 33 34 37 38 40 41 43 45 48 53 54 53 54 35 31 31 30 28 28 32 35 35 33 34 42 37 26 29 21 23 21 26 22 24 31 21
37 40 39 39 39 39 41 43 45 47 48 51 56 57 56 56 54 50 47 41 36 34 32 33 34 38 42 44 42 43 41 41 39 37 24 25 20 19 25 26 23 29 26
39 43 47 44 43 44 45 47 51 54 55 55 57 54 48 40 35 35 40 41 40 44 51 51 48 52 55 45 44 42 42 41 36 35 30 26 23 19 18 24 27 28 28
48 53 59 60 56 46 40 36 38 37 39 46 45 47 48 47 44 43 44 46 47 45 44 48 52 54 57 55 52 49 46 47 39 34 31 31 25 21 19 21 24 26 22
74 79 75 69 70 78 78 73 69 61 52 47 46 50 51 54 60 59 56 54 56 60 60 56 60 60 54 55 59 57 50 47 42 36 36 33 27 22 20 20 22 23 32
76 72 70 70 78 80 78 80 78 79 77 72 72 66 63 64 61 56 59 63 67 72 74 73 70 66 63 62 57 56 56 59 37 28 34 34 31 22 18 20 19 23 26
88 80 75 75 80 74 52 52 57 56 58 57 58 59 56 52 50 54 56 53 53 53 53 53 56 53 55 58 60 51 46 46 39 35 38 34 24 18 18 17 18 20 25
51 49 50 55 66 78 73 54 66 75 77 75 73 69 60 56 50 47 45 44 44 44 42 41 46 46 48 44 39 39 37 30 30 27 23 24 21 20 16 16 16 18 20
41 34 31 32 42 46 55 62 66 61 56 52 49 47 44 43 44 44 43 40 39 36 35 32 28 26 27 29 28 25 25 20 20 21 21 21 20 22 20 14 14 14 16
52 46 40 36 31 27 26 31 40 45 45 46 47 44 40 39 37 34 33 29 27 24 23 21 20 18 18 20 21 20 20 20 20 21 23 25 23 21 16 12 9 10 13
36 34 32 30 27 24 22 21 22 23 23 24 25 26 29 30 29 28 26 25 23 22 22 21 20 18 18 18 19 18 18 18 16 13 11 13 15 17 19 17 10 9 9
39 37 34 33 31 30 27 25 24 24 23 22 21 22 22 23 22 22 21 23 25 25 22 19 17 16 14 13 11 10 11 11 10 9 10 10 10 11 12 10 10 8 8
45 40 36 31 28 30 28 28 26 25 25 25 24 23 23 24 24 22 21 18 14 14 11 9 9 9 8 9 8 8 8 8 8 8 8 8 7 7 7 7 7 6 6
40 34 30 30 28 24 23 20 19 20 20 21 21 19 16 14 13 11 11 10 10 10 9 8 7 7 7 6 6 5 5 5 6 6 5 5 6 5 5 5 5 5 5
29 28 26 24 22 20 18 18 16 14 14 13 12 11 11 10 10 9 9 9 8 7 7 6 6 6 6 5 4 4 4 4 4 4 4 4 4 4 4 4 4 5 5
24 23 22 21 18 16 15 13 12 11 12 10 10 10 9 9 8 8 7 7 7 7 6 6 6 6 6 4 4 4 4 4 4 4 4 4 4 4 4 4 4 3 4
22 20 21 16 16 15 14 13 11 11 11 10 8 8 8 8 7 7 7 6 6 7 6 6 6 5 5 4 4 3 3 3 4 4 4 4 3 3 3 3 3 4 4
16 15 15 14 12 12 13 13 14 12 10 10 9 8 8 8 8 8 8 7 7 7 6 6 6 5 4 5 4 4 3 2 2 2 2 2 2 2 2 2 3 3 3
16 15 15 14 14 14 14 13 12 12 12 11 10 9 9 8 8 7 7 6 6 7 6 6 6 5 5 4 3 2 2 2 2 2 2 2 2 2 2 2 2 2 2
16 16 16 14 14 15 12 14 15 14 13 12 11 10 8 7 7 7 6 6 6 6 6 6 5 3 2 2 3 2 2 2 2 2 2 2 2 2 2 2 2 2 2
14 14 15 16 15 12 13 14 18 17 15 12 10 9 8 7 6 6 6 7 6 6 4 3 3 3 3 3 3 2 2 2 3 2 2 2 2 2 2 2 2 2 2
16 16 17 16 14 17 17 18 20 18 16 12 10 9 8 7 7 6 7 6 4 3 3 3 3 3 3 3 3 3 3 3 3 3 2 2 2 2 2 2 2 2 2
16 17 16 17 19 18 19 21 19 17 14 12 10 9 8 7 7 7 5 5 4 4 4 4 4 4 3 3 3 3 3 3 2 2 2 2 2 2 2 2 2 2 2
Wind_Speed
45 46 49 49 48 47 46 46 46 46 46 46 47 48 49 49 49 49 49 51 52 52 52 52 50 49 48 49 47 41 40 35 39 31 27 29 34 32 36 49 54 56 61
48 50 51 49 47 46 47 47 46 47 47 47 48 49 50 50 51 52 53 55 56 55 56 56 52 52 51 50 49 48 44 41 40 43 44 24 34 42 28 32 44 58 59
45 41 42 42 43 43 43 43 42 43 45 47 48 50 51 53 54 56 59 61 60 59 60 58 56 57 57 57 57 55 55 53 48 51 48 48 29 26 49 39 43 54 64
34 34 36 38 39 41 43 44 45 47 49 51 53 55 57 59 61 64 65 66 66 63 63 65 63 63 63 64 64 62 61 63 60 50 52 48 49 43 34 44 48 46 60
33 36 39 42 45 47 50 51 52 54 55 57 60 62 64 66 67 68 69 69 69 67 69 71 72 72 72 71 70 70 68 67 67 65 55 55 48 43 42 39 42 50 53
38 40 45 48 50 53 55 58 59 61 62 63 62 63 64 66 67 68 70 72 73 74 76 79 78 79 77 76 75 75 75 74 74 71 66 60 55 38 37 46 40 42 51
47 48 52 56 58 60 61 63 64 65 65 64 65 68 72 73 75 76 78 79 80 79 80 81 82 83 83 82 81 83 85 85 82 79 76 71 63 54 48 42 51 45 54
55 58 60 61 64 65 65 65 67 69 71 73 76 78 80 81 81 83 85 86 87 86 86 86 86 89 89 89 90 91 92 91 92 91 88 83 70 64 59 47 49 57 46
63 65 66 67 69 70 72 74 75 76 77 79 81 84 86 88 88 90 91 91 92 93 94 95 97 98 100 101 103 103 103 103 97 93 92 90 83 73 64 63 60 55 60
66 70 73 74 75 77 76 74 74 77 79 83 86 88 91 93 94 94 96 98 99 100 103 105 105 107 109 108 108 108 108 109 108 103 100 95 88 79 75 64 61 61 59
72 74 78 78 80 81 83 85 88 91 94 96 97 100 100 101 102 104 107 108 109 111 112 113 115 116 117 118 116 115 115 113 112 109 102 100 94 88 82 72 70 70 67
76 78 80 82 86 88 90 93 97 100 102 104 107 108 109 113 114 115 118 120 121 122 123 124 124 125 124 124 123 122 121 116 117 113 108 107 100 92 91 85 79 82 79
87 88 90 92 95 97 99 103 106 109 112 114 116 119 122 124 125 126 127 128 129 130 131 131 129 126 126 128 127 125 121 117 114 116 114 112 108 102 92 87 85 90 86
96 99 103 104 106 106 107 112 113 116 118 121 124 127 131 132 133 134 136 138 137 136 136 135 131 128 125 125 125 124 120 118 114 110 107 107 104 100 95 93 89 89 96
104 106 106 109 111 114 117 117 120 121 123 126 128 129 131 134 135 137 139 138 140 139 142 140 135 130 124 123 120 114 110 108 105 102 99 98 96 93 91 89 86 87 93
112 115 119 121 123 119 121 123 127 129 129 132 133 135 136 138 140 141 139 137 133 129 125 117 114 111 110 107 103 100 98 95 93 91 91 87 84 81 80 80 82 85 89
120 123 119 114 117 125 125 131 131 130 132 131 131 130 129 126 123 122 118 115 109 110 108 106 103 99 98 96 91 87 82 77 81 83 84 82 82 82 78 76 75 78 84
126 128 129 130 131 129 130 127 120 111 111 112 112 110 110 107 106 105 101 100 101 99 98 95 91 87 86 84 82 78 72 68 70 70 70 72 73 74 76 75 72 76 78
127 128 130 129 124 115 114 113 114 106 107 101 96 94 93 92 91 91 90 89 87 86 86 84 83 81 80 77 73 69 66 64 65 65 67 68 69 73 71 71 71 76 79
122 128 121 116 111 109 106 108 101 97 93 90 87 84 83 82 82 81 81 81 80 79 78 78 75 72 71 68 67 64 61 60 62 64 66 68 71 73 71 69 72 73 81
116 112 113 113 108 105 104 95 89 89 87 83 82 80 80 79 78 77 75 74 74 73 72 70 69 66 64 61 61 58 56 57 59 59 61 63 64 67 68 67 68 73 80
113 110 109 110 101 96 90 86 84 82 81 81 79 77 76 75 72 69 68 68 65 64 65 63 63 62 60 59 57 54 51 51 52 53 53 55 55 58 61 62 66 71 77
109 108 104 98 91 87 84 81 80 81 80 78 76 73 71 68 64 62 61 59 58 58 58 58 58 56 53 51 49 48 45 45 47 48 46 46 46 51 57 58 62 66 71
101 97 91 86 84 83 78 76 75 78 77 74 69 66 65 62 59 55 52 53 52 52 51 50 47 47 44 43 43 42 41 40 41 42 42 41 41 46 50 54 59 63 66
90 84 81 80 78 76 76 75 70 71 72 69 66 61 59 57 54 50 47 50 46 46 44 42 41 40 38 38 38 37 35 35 36 38 38 37 40 44 46 49 55 62 66
78 77 76 73 72 73 73 70 66 65 66 65 61 58 56 52 49 49 43 44 42 40 40 39 37 35 35 33 33 32 31 32 34 34 32 33 38 41 42 45 52 58 63
Wind_Direction
284 284 286 287 284 283 283 280 280 279 277 274 274 274 275 276 279 282 284 286 289 291 292 292 293 291 290 294 294 295 295 299 301 293 272 235 235 237 245 238 245 239 226
286 286 285 284 284 283 282 283 283 282 280 280 278 278 279 280 281 283 285 286 288 290 290 290 290 289 290 290 289 289 293 299 299 303 303 284 235 225 239 243 241 241 235
290 289 287 286 286 284 284 284 284 284 283 280 280 281 281 282 283 284 285 286 286 287 287 286 288 289 289 288 286 286 288 294 300 301 306 309 285 270 232 239 236 241 240
299 295 293 291 290 290 290 291 289 286 285 285 285 284 284 284 284 284 285 285 285 285 285 284 284 285 285 283 283 285 287 289 294 300 300 301 302 299 287 236 232 240 241
295 296 294 293 291 290 289 287 285 284 283 282 282 282 284 284 284 284 284 284 285 285 284 284 286 285 285 284 285 286 288 289 292 295 299 302 299 295 299 273 231 228 238
288 290 291 289 287 286 285 284 283 282 282 282 282 281 281 282 284 283 283 283 283 282 282 282 283 283 283 284 285 287 288 289 291 292 293 294 296 280 269 272 253 232 227
288 290 291 291 292 291 289 287 285 284 282 281 281 283 283 283 284 283 282 281 281 281 282 282 282 282 280 280 281 283 286 287 288 289 290 291 291 288 280 261 253 251 235
288 289 288 288 289 288 286 284 283 283 282 281 281 282 284 282 280 280 280 280 280 278 277 278 278 278 280 280 280 281 285 286 287 289 289 290 286 285 285 272 247 249 237
289 288 289 291 290 287 285 284 285 285 283 283 283 283 284 284 283 282 283 283 281 280 278 278 279 278 278 279 281 281 283 284 286 286 286 286 286 285 279 275 267 238 243
290 291 291 290 288 287 286 283 283 283 283 284 284 284 284 282 282 281 281 281 281 280 281 280 279 280 280 280 281 281 282 282 283 283 282 283 284 284 279 265 251 244 242
286 288 288 288 287 285 284 282 282 284 284 283 283 284 283 281 280 280 281 280 281 280 280 281 280 280 280 281 282 280 279 282 282 283 282 281 280 279 273 265 253 248 241
286 287 287 286 285 285 284 283 282 282 281 281 281 281 280 280 280 279 280 280 279 280 281 281 282 282 281 281 280 280 280 282 282 281 281 279 277 275 272 265 253 237 238
284 285 286 287 287 287 286 283 280 279 279 279 280 280 280 279 280 280 280 281 282 284 284 284 284 284 283 282 282 281 281 280 280 280 278 275 274 271 266 263 251 239 237
289 289 291 292 291 290 290 289 285 282 281 280 280 281 280 280 281 282 282 283 285 285 285 285 284 284 283 282 281 279 278 278 278 276 273 270 266 266 265 265 255 241 230
287 290 291 292 291 291 292 290 289 287 285 284 283 283 284 283 283 285 285 284 283 284 284 284 283 282 281 280 280 278 277 277 276 273 272 268 263 260 259 256 251 243 235
291 292 292 293 291 290 290 289 288 287 286 286 286 286 285 284 284 285 284 284 284 283 282 282 282 281 280 278 277 276 275 273 272 269 267 266 261 257 252 247 244 241 233
287 289 288 287 287 289 289 290 289 288 286 284 285 285 285 285 285 285 283 284 284 282 282 283 282 282 281 279 279 277 274 272 271 266 263 259 258 254 251 245 240 236 230
288 289 290 290 289 291 292 292 292 293 292 291 289 288 287 286 285 284 284 283 283 283 284 284 284 283 281 280 278 277 275 270 266 263 260 256 253 250 247 245 239 232 225
290 291 291 292 296 297 295 295 295 294 295 293 290 288 288 287 285 285 285 285 285 285 284 284 283 283 281 279 278 276 273 269 264 261 256 253 250 247 243 239 235 230 227
291 292 294 294 297 298 297 297 299 298 296 295 294 293 292 291 290 290 288 287 285 285 285 285 284 282 280 279 278 275 273 268 263 258 254 250 247 245 241 235 233 229 226
294 296 297 298 299 300 301 300 300 297 296 296 296 295 294 293 292 291 288 288 288 288 286 284 284 283 281 280 278 276 271 265 261 256 251 248 245 244 241 236 232 228 226
296 297 298 300 300 299 299 300 299 298 298 298 298 297 296 294 294 292 291 290 289 287 285 284 283 283 282 280 278 275 271 266 262 256 251 248 243 241 238 234 229 226 223
296 296 297 298 299 299 300 300 299 299 299 298 297 297 296 295 293 293 292 290 287 285 284 283 282 281 279 278 276 274 269 263 259 256 251 247 243 238 235 230 227 223 221
295 296 297 298 299 300 301 301 301 301 302 300 299 298 298 298 297 296 294 290 287 285 284 283 282 281 281 279 276 271 266 261 256 252 248 244 239 236 233 227 224 220 217
295 296 297 298 299 300 301 302 302 302 301 302 302 301 301 300 299 298 297 291 290 289 287 286 285 285 282 278 274 270 266 260 253 248 244 238 232 230 227 223 221 217 214
296 296 296 297 297 298 299 302 303 302 302 302 303 302 303 301 301 300 297 293 292 290 288 288 286 282 281 276 273 270 263 256 251 247 241 234 228 226 223 218 216 215 212